Back to Top

Language: 

My Weather Underground Personal Weather Station Historical Data with Graphs...

Delerius Weather Station Historical Data
Daily Summary for April 23, 2017 Units:  Metric    English   Both
« Previous Day
Next Day »
Daily Weekly Monthly Yearly Custom
  High: Low: Average:
Temperature: 15.8 °C 4.4 °C 9.9 °C
Dew Point: 5.7 °C 0.9 °C 3 °C
Humidity: 87 % 40 % 64 %
Wind Speed: 19.3 km/h 0 km/h 7.7 km/h
Wind Gust: 33.8 km/h - -
Wind:- - WNW
Pressure: 1028.7 hPa 1019.2 hPa -
Precipitation: 0 mm    
Historical Graphs
 
 
Tabular Data for April 23, 2017
Time Temperature Dew Point Pressure Wind Wind Speed Wind Gust Humidity Rainfall Rate (Hourly) solar Conditions
00:01 6.3 °C 1.8 °C 1028.7 hPa Calm   1.6 km/h 73 % 0 mm 0 W/m2
00:06 6.2 °C 1.7 °C 1028.7 hPa Calm     73 % 0 mm 0 W/m2
00:11 6.1 °C 1.8 °C 1028.7 hPa Calm     74 % 0 mm 0 W/m2
00:16 6 °C 1.7 °C 1028.7 hPa Calm   3.2 km/h 74 % 0 mm 0 W/m2
00:21 5.9 °C 1.6 °C 1028.7 hPa South 1.6 km/h 3.2 km/h 74 % 0 mm 0 W/m2
00:26 5.8 °C 1.7 °C 1028.7 hPa Calm   3.2 km/h 75 % 0 mm 0 W/m2
00:31 5.8 °C 1.7 °C 1028.7 hPa Calm   4.8 km/h 75 % 0 mm 0 W/m2
00:36 5.8 °C 1.9 °C 1028.7 hPa SW 1.6 km/h 6.4 km/h 76 % 0 mm 0 W/m2
00:41 5.8 °C 1.7 °C 1028.7 hPa WSW 1.6 km/h 6.4 km/h 75 % 0 mm 0 W/m2
00:46 5.8 °C 1.9 °C 1028.7 hPa Calm   4.8 km/h 76 % 0 mm 0 W/m2
00:51 5.8 °C 1.9 °C 1028.7 hPa Calm   1.6 km/h 76 % 0 mm 0 W/m2
00:56 5.7 °C 2.2 °C 1028.7 hPa Calm     78 % 0 mm 0 W/m2
01:01 5.6 °C 2.1 °C 1028.7 hPa Calm     78 % 0 mm 0 W/m2
01:06 5.6 °C 2.2 °C 1028.7 hPa Calm   3.2 km/h 79 % 0 mm 0 W/m2
01:11 5.5 °C 2.2 °C 1028.3 hPa WSW 1.6 km/h 3.2 km/h 79 % 0 mm 0 W/m2
01:17 5.5 °C 2.2 °C 1028.3 hPa WSW 1.6 km/h 3.2 km/h 79 % 0 mm 0 W/m2
01:22 5.4 °C 2.1 °C 1028.3 hPa WSW 1.6 km/h 6.4 km/h 79 % 0 mm 0 W/m2
01:27 5.4 °C 2.1 °C 1028.3 hPa WSW 3.2 km/h 8 km/h 79 % 0 mm 0 W/m2
01:32 5.4 °C 2.1 °C 1028.3 hPa WSW 1.6 km/h 8 km/h 79 % 0 mm 0 W/m2
01:37 5.3 °C 1.9 °C 1028.3 hPa Calm   4.8 km/h 79 % 0 mm 0 W/m2
01:42 5.3 °C 2.1 °C 1028.3 hPa Calm   1.6 km/h 80 % 0 mm 0 W/m2
01:47 5.3 °C 2.1 °C 1028 hPa Calm   1.6 km/h 80 % 0 mm 0 W/m2
01:52 5.3 °C 2.3 °C 1028 hPa Calm   1.6 km/h 81 % 0 mm 0 W/m2
01:57 5.3 °C 2.3 °C 1028 hPa Calm   1.6 km/h 81 % 0 mm 0 W/m2
02:02 5.4 °C 2.4 °C 1028 hPa Calm   3.2 km/h 81 % 0 mm 0 W/m2
02:07 5.5 °C 2.5 °C 1028 hPa Calm   3.2 km/h 81 % 0 mm 0 W/m2
02:12 5.5 °C 2.5 °C 1028 hPa WSW 1.6 km/h 8 km/h 81 % 0 mm 0 W/m2
02:18 5.6 °C 2.6 °C 1028 hPa WSW 4.8 km/h 11.3 km/h 81 % 0 mm 0 W/m2
02:23 5.7 °C 2.5 °C 1027.7 hPa WSW 4.8 km/h 11.3 km/h 80 % 0 mm 0 W/m2
02:28 5.7 °C 2.3 °C 1027.7 hPa WSW 4.8 km/h 11.3 km/h 79 % 0 mm 0 W/m2
02:33 5.7 °C 2.3 °C 1027.7 hPa WSW 3.2 km/h 9.7 km/h 79 % 0 mm 0 W/m2
02:38 5.7 °C 2.2 °C 1027.7 hPa WSW 1.6 km/h 8 km/h 78 % 0 mm 0 W/m2
02:43 5.6 °C 2.1 °C 1027.7 hPa Calm   6.4 km/h 78 % 0 mm 0 W/m2
02:48 5.4 °C 1.9 °C 1027.7 hPa Calm   6.4 km/h 78 % 0 mm 0 W/m2
02:53 5.3 °C 1.8 °C 1027.7 hPa WSW 1.6 km/h 4.8 km/h 78 % 0 mm 0 W/m2
02:58 5.1 °C 1.6 °C 1027.7 hPa Calm   6.4 km/h 78 % 0 mm 0 W/m2
03:03 5 °C 1.5 °C 1027.7 hPa Calm   6.4 km/h 78 % 0 mm 0 W/m2
03:08 4.8 °C 1.3 °C 1027.7 hPa Calm   3.2 km/h 78 % 0 mm 0 W/m2
03:13 4.7 °C 1.4 °C 1027.7 hPa WSW 1.6 km/h 6.4 km/h 79 % 0 mm 0 W/m2
03:18 4.6 °C 1.3 °C 1027.3 hPa WSW 1.6 km/h 6.4 km/h 79 % 0 mm 0 W/m2
03:23 4.6 °C 1.3 °C 1027.3 hPa Calm   3.2 km/h 79 % 0 mm 0 W/m2
03:28 4.5 °C 1.2 °C 1027.3 hPa Calm     79 % 0 mm 0 W/m2
03:33 4.4 °C 1.1 °C 1027.3 hPa Calm   3.2 km/h 79 % 0 mm 0 W/m2
03:38 4.4 °C 1.2 °C 1027.3 hPa WSW 1.6 km/h 8 km/h 80 % 0 mm 0 W/m2
03:43 4.4 °C 1.2 °C 1027.3 hPa WSW 1.6 km/h 8 km/h 80 % 0 mm 0 W/m2
03:48 4.4 °C 1.2 °C 1027.3 hPa Calm   3.2 km/h 80 % 0 mm 0 W/m2
03:53 4.6 °C 1.4 °C 1027.3 hPa Calm   3.2 km/h 80 % 0 mm 0 W/m2
03:58 4.6 °C 1.4 °C 1027.3 hPa Calm   3.2 km/h 80 % 0 mm 0 W/m2
04:03 4.7 °C 1.6 °C 1027.3 hPa Calm   3.2 km/h 80 % 0 mm 0 W/m2
04:08 4.8 °C 1.7 °C 1027.3 hPa West 1.6 km/h 8 km/h 80 % 0 mm 0 W/m2
04:13 4.9 °C 1.7 °C 1027 hPa WNW 1.6 km/h 8 km/h 80 % 0 mm 0 W/m2
04:18 5 °C 1.8 °C 1027 hPa WNW 3.2 km/h 9.7 km/h 80 % 0 mm 0 W/m2
04:23 5 °C 1.8 °C 1027 hPa WNW 3.2 km/h 11.3 km/h 80 % 0 mm 0 W/m2
04:28 5.1 °C 1.8 °C 1027 hPa West 4.8 km/h 12.9 km/h 79 % 0 mm 0 W/m2
04:33 5.1 °C 1.8 °C 1027 hPa West 3.2 km/h 12.9 km/h 79 % 0 mm 0 W/m2
04:39 5.2 °C 1.7 °C 1027 hPa West 3.2 km/h 9.7 km/h 78 % 0 mm 0 W/m2
04:44 5.2 °C 1.7 °C 1027 hPa West 4.8 km/h 14.5 km/h 78 % 0 mm 0 W/m2
04:49 5.2 °C 1.7 °C 1027 hPa West 4.8 km/h 14.5 km/h 78 % 0 mm 0 W/m2
04:54 5.3 °C 1.6 °C 1027 hPa West 6.4 km/h 12.9 km/h 77 % 0 mm 0 W/m2
04:59 5.3 °C 1.6 °C 1027 hPa West 8 km/h 14.5 km/h 77 % 0 mm 0 W/m2
05:04 5.4 °C 1.5 °C 1027 hPa WSW 8 km/h 17.7 km/h 76 % 0 mm 0 W/m2
05:09 5.6 °C 1.7 °C 1027 hPa WSW 8 km/h 17.7 km/h 76 % 0 mm 0 W/m2
05:14 5.7 °C 1.6 °C 1027 hPa WSW 8 km/h 14.5 km/h 75 % 0 mm 0 W/m2
05:19 5.6 °C 1.5 °C 1027 hPa West 8 km/h 14.5 km/h 75 % 0 mm 0 W/m2
05:24 5.6 °C 1.5 °C 1026.6 hPa West 6.4 km/h 14.5 km/h 75 % 0 mm 0 W/m2
05:29 5.4 °C 1.3 °C 1026.6 hPa WNW 4.8 km/h 9.7 km/h 75 % 0 mm 0 W/m2
05:34 5.3 °C 1.4 °C 1026.6 hPa NW 4.8 km/h 9.7 km/h 76 % 0 mm 0 W/m2
05:39 5.2 °C 1.5 °C 1026.6 hPa NW 4.8 km/h 9.7 km/h 77 % 0 mm 0 W/m2
05:44 5.1 °C 1.4 °C 1026.6 hPa NW 4.8 km/h 9.7 km/h 77 % 0 mm 5 W/m2
05:49 5.1 °C 1.6 °C 1026.6 hPa WNW 4.8 km/h 9.7 km/h 78 % 0 mm 5 W/m2
05:54 4.9 °C 1.6 °C 1026.6 hPa WNW 3.2 km/h 8 km/h 79 % 0 mm 7 W/m2
05:59 4.9 °C 1.6 °C 1026.6 hPa WNW 3.2 km/h 8 km/h 79 % 0 mm 11 W/m2
06:04 4.8 °C 1.8 °C 1026.6 hPa WNW 3.2 km/h 8 km/h 81 % 0 mm 14 W/m2
06:09 4.8 °C 1.8 °C 1026.6 hPa WNW 4.8 km/h 8 km/h 81 % 0 mm 16 W/m2
06:14 4.7 °C 1.9 °C 1026.6 hPa WNW 3.2 km/h 6.4 km/h 82 % 0 mm 19 W/m2
06:19 4.7 °C 2.1 °C 1026.6 hPa WNW 1.6 km/h 6.4 km/h 83 % 0 mm 21 W/m2
06:24 4.6 °C 1.9 °C 1026.6 hPa WNW 1.6 km/h 6.4 km/h 83 % 0 mm 25 W/m2
06:29 4.6 °C 2.1 °C 1026.6 hPa WNW 1.6 km/h 6.4 km/h 84 % 0 mm 26 W/m2
06:34 4.6 °C 2.1 °C 1026.6 hPa WNW 1.6 km/h 6.4 km/h 84 % 0 mm 37 W/m2
06:39 4.6 °C 2.1 °C 1026.6 hPa WNW 1.6 km/h 4.8 km/h 84 % 0 mm 32 W/m2
06:45 4.6 °C 2.3 °C 1026.6 hPa Calm   3.2 km/h 85 % 0 mm 33 W/m2
06:50 4.6 °C 2.3 °C 1026.6 hPa Calm   3.2 km/h 85 % 0 mm 35 W/m2
06:55 4.6 °C 2.4 °C 1026.6 hPa Calm   6.4 km/h 86 % 0 mm 42 W/m2
07:00 4.7 °C 2.6 °C 1026.6 hPa WNW 1.6 km/h 6.4 km/h 86 % 0 mm 46 W/m2
07:05 4.8 °C 2.7 °C 1026.6 hPa WNW 1.6 km/h 6.4 km/h 86 % 0 mm 70 W/m2
07:10 5.1 °C 3.1 °C 1026.6 hPa WNW 1.6 km/h 6.4 km/h 87 % 0 mm 148 W/m2
07:15 5.4 °C 3.4 °C 1026.6 hPa WNW 1.6 km/h 6.4 km/h 87 % 0 mm 165 W/m2
07:20 5.8 °C 3.6 °C 1026.6 hPa WNW 1.6 km/h 8 km/h 86 % 0 mm 178 W/m2
07:25 6.3 °C 3.9 °C 1026.6 hPa WNW 1.6 km/h 8 km/h 85 % 0 mm 193 W/m2
07:30 6.9 °C 4.2 °C 1026.6 hPa WNW 3.2 km/h 12.9 km/h 83 % 0 mm 202 W/m2
07:35 7.4 °C 4.3 °C 1026.6 hPa WNW 4.8 km/h 12.9 km/h 81 % 0 mm 216 W/m2
07:40 7.8 °C 4.4 °C 1026.6 hPa WNW 3.2 km/h 9.7 km/h 79 % 0 mm 232 W/m2
07:45 8.2 °C 4.4 °C 1026.6 hPa WNW 3.2 km/h 9.7 km/h 77 % 0 mm 244 W/m2
07:50 8.4 °C 4.4 °C 1026.6 hPa WNW 4.8 km/h 12.9 km/h 76 % 0 mm 258 W/m2
07:55 8.6 °C 4.4 °C 1026.6 hPa West 6.4 km/h 14.5 km/h 75 % 0 mm 272 W/m2
08:00 8.9 °C 4.5 °C 1026.6 hPa West 6.4 km/h 14.5 km/h 74 % 0 mm 287 W/m2
08:05 9.1 °C 4.3 °C 1026.6 hPa West 9.7 km/h 17.7 km/h 72 % 0 mm 304 W/m2
08:10 9.2 °C 4.4 °C 1026.6 hPa West 11.3 km/h 17.7 km/h 72 % 0 mm 304 W/m2
08:15 9.3 °C 4.5 °C 1026.6 hPa West 9.7 km/h 20.9 km/h 72 % 0 mm 323 W/m2
08:20 9.4 °C 4.4 °C 1026.6 hPa West 9.7 km/h 20.9 km/h 71 % 0 mm 343 W/m2
08:25 9.6 °C 4.6 °C 1026.6 hPa West 9.7 km/h 17.7 km/h 71 % 0 mm 352 W/m2
08:30 9.8 °C 4.4 °C 1026.6 hPa West 11.3 km/h 17.7 km/h 69 % 0 mm 374 W/m2
08:35 9.9 °C 4.3 °C 1026.6 hPa West 12.9 km/h 20.9 km/h 68 % 0 mm 338 W/m2
08:40 10.1 °C 4.4 °C 1026.6 hPa West 11.3 km/h 20.9 km/h 68 % 0 mm 415 W/m2
08:45 10.3 °C 4.4 °C 1026.6 hPa WNW 11.3 km/h 17.7 km/h 67 % 0 mm 383 W/m2
08:46 10.3 °C 4.4 °C 1026.3 hPa WNW 11.3 km/h 17.7 km/h 67 % 0 mm 383 W/m2
08:50 10.5 °C 4.4 °C 1026.3 hPa WNW 11.3 km/h 17.7 km/h 66 % 0 mm 455 W/m2
08:56 10.7 °C 4.4 °C 1026.3 hPa WNW 11.3 km/h 17.7 km/h 65 % 0 mm 490 W/m2
09:01 11 °C 4.4 °C 1026.3 hPa WNW 8 km/h 14.5 km/h 64 % 0 mm 541 W/m2
09:06 11.3 °C 4.5 °C 1026.3 hPa WNW 8 km/h 19.3 km/h 63 % 0 mm 510 W/m2
09:11 11.4 °C 4.8 °C 1026.3 hPa WNW 9.7 km/h 19.3 km/h 64 % 0 mm 485 W/m2
09:16 11.6 °C 4.6 °C 1026.3 hPa NW 11.3 km/h 20.9 km/h 62 % 0 mm 381 W/m2
09:21 11.6 °C 4.3 °C 1026.3 hPa NW 9.7 km/h 20.9 km/h 61 % 0 mm 425 W/m2
09:26 11.7 °C 4.7 °C 1026.3 hPa WNW 8 km/h 16.1 km/h 62 % 0 mm 158 W/m2
09:31 11.7 °C 4.7 °C 1026.3 hPa WNW 8 km/h 16.1 km/h 62 % 0 mm 330 W/m2
09:36 11.6 °C 4.3 °C 1026.3 hPa NW 8 km/h 17.7 km/h 61 % 0 mm 158 W/m2
09:41 11.4 °C 4.4 °C 1026.3 hPa NW 8 km/h 17.7 km/h 62 % 0 mm 216 W/m2
09:46 11.5 °C 4.2 °C 1026.3 hPa NW 8 km/h 16.1 km/h 61 % 0 mm 603 W/m2
09:51 11.6 °C 3.8 °C 1026.3 hPa WNW 9.7 km/h 16.1 km/h 59 % 0 mm 554 W/m2
09:56 11.8 °C 4.3 °C 1026.3 hPa WNW 9.7 km/h 17.7 km/h 60 % 0 mm 671 W/m2
10:01 12.1 °C 4.3 °C 1026.3 hPa WNW 9.7 km/h 20.9 km/h 59 % 0 mm 679 W/m2
10:06 12.4 °C 4.6 °C 1026.3 hPa NW 8 km/h 20.9 km/h 59 % 0 mm 271 W/m2
10:11 12.6 °C 4.6 °C 1026.3 hPa NW 6.4 km/h 16.1 km/h 58 % 0 mm 761 W/m2
10:16 12.7 °C 4.2 °C 1026.3 hPa NW 8 km/h 16.1 km/h 56 % 0 mm 258 W/m2
10:21 12.7 °C 4.2 °C 1026.3 hPa NNW 9.7 km/h 16.1 km/h 56 % 0 mm 812 W/m2
10:26 12.4 °C 3.8 °C 1026.3 hPa NW 9.7 km/h 17.7 km/h 56 % 0 mm 163 W/m2
10:31 12.3 °C 3.5 °C 1026.3 hPa NW 8 km/h 17.7 km/h 55 % 0 mm 796 W/m2
10:36 12.4 °C 3.8 °C 1026.3 hPa West 6.4 km/h 14.5 km/h 56 % 0 mm 858 W/m2
10:41 12.8 °C 4.5 °C 1026 hPa West 8 km/h 16.1 km/h 57 % 0 mm 671 W/m2
10:46 13.2 °C 4.1 °C 1026 hPa WNW 9.7 km/h 16.1 km/h 54 % 0 mm 714 W/m2
10:51 13.1 °C 3.4 °C 1026 hPa West 9.7 km/h 16.1 km/h 52 % 0 mm 253 W/m2
10:56 13.1 °C 3.7 °C 1026 hPa WNW 6.4 km/h 14.5 km/h 53 % 0 mm 812 W/m2
11:01 13.3 °C 3.7 °C 1026 hPa WNW 4.8 km/h 12.9 km/h 52 % 0 mm 840 W/m2
11:06 13.6 °C 3.7 °C 1026 hPa West 6.4 km/h 14.5 km/h 51 % 0 mm 870 W/m2
11:12 13.9 °C 3.6 °C 1025.6 hPa WNW 4.8 km/h 14.5 km/h 50 % 0 mm 921 W/m2
11:17 13.9 °C 3.6 °C 1025.6 hPa WNW 4.8 km/h 19.3 km/h 50 % 0 mm 288 W/m2
11:22 13.8 °C 3.6 °C 1025.6 hPa WNW 8 km/h 24.1 km/h 50 % 0 mm 278 W/m2
11:27 13.6 °C 3.7 °C 1025.6 hPa WNW 8 km/h 24.1 km/h 51 % 0 mm 366 W/m2
11:32 13.6 °C 4.2 °C 1025.6 hPa West 6.4 km/h 17.7 km/h 53 % 0 mm 1007 W/m2
11:37 13.8 °C 3.8 °C 1025.6 hPa West 9.7 km/h 20.9 km/h 51 % 0 mm 399 W/m2
11:42 13.7 °C 3.4 °C 1025.6 hPa WNW 11.3 km/h 20.9 km/h 50 % 0 mm 290 W/m2
11:47 13.5 °C 3.6 °C 1025.6 hPa WNW 11.3 km/h 19.3 km/h 51 % 0 mm 362 W/m2
11:52 13.4 °C 3.7 °C 1025.3 hPa West 9.7 km/h 19.3 km/h 52 % 0 mm 415 W/m2
11:57 13.5 °C 4.1 °C 1025.3 hPa West 8 km/h 17.7 km/h 53 % 0 mm 796 W/m2
12:02 13.7 °C 3.7 °C 1025.3 hPa WNW 8 km/h 22.5 km/h 51 % 0 mm 842 W/m2
12:07 13.7 °C 3.7 °C 1025.3 hPa West 11.3 km/h 22.5 km/h 51 % 0 mm 292 W/m2
12:12 13.5 °C 3.3 °C 1025.3 hPa West 11.3 km/h 20.9 km/h 50 % 0 mm 846 W/m2
12:17 13.7 °C 3.7 °C 1024.9 hPa West 9.7 km/h 20.9 km/h 51 % 0 mm 860 W/m2
12:22 13.9 °C 3.9 °C 1024.9 hPa West 8 km/h 20.9 km/h 51 % 0 mm 842 W/m2
12:27 14.1 °C 4.1 °C 1024.9 hPa West 8 km/h 32.2 km/h 51 % 0 mm 902 W/m2
12:32 14.4 °C 3.8 °C 1024.9 hPa West 11.3 km/h 32.2 km/h 49 % 0 mm 826 W/m2
12:37 14.6 °C 4 °C 1024.9 hPa WNW 11.3 km/h 25.7 km/h 49 % 0 mm 868 W/m2
12:42 14.7 °C 3.8 °C 1024.9 hPa West 9.7 km/h 20.9 km/h 48 % 0 mm 854 W/m2
12:47 14.9 °C 3.7 °C 1024.6 hPa WNW 11.3 km/h 19.3 km/h 47 % 0 mm 867 W/m2
12:52 15.1 °C 3.6 °C 1024.6 hPa West 9.7 km/h 19.3 km/h 46 % 0 mm 886 W/m2
12:57 15.2 °C 3.9 °C 1024.6 hPa West 9.7 km/h 19.3 km/h 47 % 0 mm 888 W/m2
13:02 15.1 °C 3.2 °C 1024.6 hPa West 11.3 km/h 20.9 km/h 45 % 0 mm 151 W/m2
13:07 14.9 °C 3.1 °C 1024.3 hPa West 12.9 km/h 24.1 km/h 45 % 0 mm 891 W/m2
13:12 14.9 °C 3.4 °C 1024.3 hPa West 11.3 km/h 24.1 km/h 46 % 0 mm 900 W/m2
13:18 14.8 °C 3.9 °C 1024.3 hPa WSW 11.3 km/h 20.9 km/h 48 % 0 mm 926 W/m2
13:23 14.8 °C 4.2 °C 1024.3 hPa West 11.3 km/h 22.5 km/h 49 % 0 mm 188 W/m2
13:28 14.9 °C 3.7 °C 1024.3 hPa WNW 11.3 km/h 22.5 km/h 47 % 0 mm 216 W/m2
13:33 14.8 °C 3.3 °C 1024.3 hPa West 12.9 km/h 20.9 km/h 46 % 0 mm 874 W/m2
13:34 14.8 °C 3.3 °C 1023.9 hPa West 12.9 km/h 20.9 km/h 46 % 0 mm 874 W/m2
13:39 14.7 °C 3.5 °C 1024.3 hPa West 11.3 km/h 19.3 km/h 47 % 0 mm 264 W/m2
13:44 14.7 °C 3.8 °C 1023.9 hPa West 9.7 km/h 20.9 km/h 48 % 0 mm 937 W/m2
13:49 14.7 °C 3.5 °C 1023.9 hPa West 9.7 km/h 20.9 km/h 47 % 0 mm 216 W/m2
13:54 14.8 °C 4.2 °C 1023.9 hPa WNW 11.3 km/h 19.3 km/h 49 % 0 mm 849 W/m2
13:59 15 °C 4.1 °C 1023.9 hPa WNW 12.9 km/h 24.1 km/h 48 % 0 mm 865 W/m2
14:04 15.1 °C 3.8 °C 1023.9 hPa WNW 12.9 km/h 24.1 km/h 47 % 0 mm 824 W/m2
14:09 15.3 °C 4.1 °C 1023.9 hPa WNW 11.3 km/h 20.9 km/h 47 % 0 mm 833 W/m2
14:14 15.5 °C 4.5 °C 1023.6 hPa WNW 11.3 km/h 20.9 km/h 48 % 0 mm 853 W/m2
14:19 15.5 °C 3.9 °C 1023.6 hPa WNW 14.5 km/h 22.5 km/h 46 % 0 mm 216 W/m2
14:24 15.3 °C 3.7 °C 1023.6 hPa WNW 12.9 km/h 22.5 km/h 46 % 0 mm 844 W/m2
14:29 15.2 °C 3.9 °C 1023.6 hPa West 12.9 km/h 24.1 km/h 47 % 0 mm 244 W/m2
14:34 15 °C 4.1 °C 1023.6 hPa WNW 12.9 km/h 24.1 km/h 48 % 0 mm 207 W/m2
14:39 14.9 °C 3.7 °C 1023.2 hPa WNW 9.7 km/h 20.9 km/h 47 % 0 mm 225 W/m2
14:44 14.8 °C 3.6 °C 1023.2 hPa WNW 9.7 km/h 17.7 km/h 47 % 0 mm 265 W/m2
14:49 14.8 °C 3.9 °C 1023.2 hPa WNW 11.3 km/h 17.7 km/h 48 % 0 mm 838 W/m2
14:54 14.8 °C 3.9 °C 1023.2 hPa WNW 9.7 km/h 17.7 km/h 48 % 0 mm 844 W/m2
14:59 15.1 °C 4.2 °C 1023.2 hPa West 11.3 km/h 25.7 km/h 48 % 0 mm 772 W/m2
15:04 15.2 °C 3.9 °C 1022.9 hPa West 14.5 km/h 29 km/h 47 % 0 mm 207 W/m2
15:10 15.2 °C 4.3 °C 1022.9 hPa West 12.9 km/h 25.7 km/h 48 % 0 mm 809 W/m2
15:15 15.2 °C 3.9 °C 1022.9 hPa West 14.5 km/h 22.5 km/h 47 % 0 mm 807 W/m2
15:20 15.1 °C 4.2 °C 1022.9 hPa West 14.5 km/h 24.1 km/h 48 % 0 mm 134 W/m2
15:25 15.1 °C 4.2 °C 1022.9 hPa West 14.5 km/h 29 km/h 48 % 0 mm 729 W/m2
15:30 15.2 °C 3.9 °C 1022.9 hPa West 12.9 km/h 29 km/h 47 % 0 mm 687 W/m2
15:35 15.3 °C 4.1 °C 1022.6 hPa West 14.5 km/h 25.7 km/h 47 % 0 mm 684 W/m2
15:40 15.7 °C 4.7 °C 1022.6 hPa WNW 12.9 km/h 25.7 km/h 48 % 0 mm 642 W/m2
15:45 15.8 °C 3.9 °C 1022.6 hPa WNW 14.5 km/h 25.7 km/h 45 % 0 mm 654 W/m2
15:50 15.8 °C 4.2 °C 1022.6 hPa WNW 14.5 km/h 25.7 km/h 46 % 0 mm 643 W/m2
15:55 15.8 °C 4.2 °C 1022.6 hPa WNW 14.5 km/h 29 km/h 46 % 0 mm 615 W/m2
16:00 15.7 °C 3.8 °C 1022.6 hPa West 14.5 km/h 29 km/h 45 % 0 mm 638 W/m2
16:05 15.7 °C 4.1 °C 1022.6 hPa WNW 14.5 km/h 24.1 km/h 46 % 0 mm 612 W/m2
16:10 15.8 °C 4.2 °C 1022.2 hPa WNW 12.9 km/h 24.1 km/h 46 % 0 mm 527 W/m2
16:15 15.8 °C 3.9 °C 1022.2 hPa WNW 12.9 km/h 29 km/h 45 % 0 mm 548 W/m2
16:20 15.4 °C 3.8 °C 1022.2 hPa West 16.1 km/h 29 km/h 46 % 0 mm 548 W/m2
16:25 15.2 °C 3.7 °C 1022.2 hPa WNW 16.1 km/h 29 km/h 46 % 0 mm 557 W/m2
16:30 15.3 °C 4.1 °C 1022.2 hPa WNW 16.1 km/h 29 km/h 47 % 0 mm 545 W/m2
16:35 15.3 °C 4.1 °C 1022.2 hPa WNW 16.1 km/h 25.7 km/h 47 % 0 mm 536 W/m2
16:40 15.3 °C 3.7 °C 1022.2 hPa WNW 16.1 km/h 29 km/h 46 % 0 mm 519 W/m2
16:45 15.2 °C 3.9 °C 1021.9 hPa WNW 16.1 km/h 29 km/h 47 % 0 mm 492 W/m2
16:50 15.1 °C 3.8 °C 1021.9 hPa WNW 14.5 km/h 25.7 km/h 47 % 0 mm 455 W/m2
16:55 15.1 °C 3.8 °C 1021.9 hPa WNW 16.1 km/h 29 km/h 47 % 0 mm 462 W/m2
17:00 15 °C 4.4 °C 1021.9 hPa WNW 16.1 km/h 29 km/h 49 % 0 mm 427 W/m2
17:05 14.8 °C 3.6 °C 1021.9 hPa West 16.1 km/h 25.7 km/h 47 % 0 mm 399 W/m2
17:10 14.7 °C 3.8 °C 1021.9 hPa West 14.5 km/h 29 km/h 48 % 0 mm 343 W/m2
17:15 14.7 °C 3.8 °C 1021.9 hPa West 12.9 km/h 29 km/h 48 % 0 mm 425 W/m2
17:20 14.8 °C 3.6 °C 1021.9 hPa WNW 14.5 km/h 29 km/h 47 % 0 mm 429 W/m2
17:25 14.8 °C 3.6 °C 1021.6 hPa WNW 17.7 km/h 29 km/h 47 % 0 mm 406 W/m2
17:30 14.8 °C 2.9 °C 1021.6 hPa West 16.1 km/h 25.7 km/h 45 % 0 mm 392 W/m2
17:35 14.7 °C 2.6 °C 1021.6 hPa West 14.5 km/h 25.7 km/h 44 % 0 mm 378 W/m2
17:40 14.7 °C 2.2 °C 1021.6 hPa WNW 14.5 km/h 25.7 km/h 43 % 0 mm 362 W/m2
17:45 14.7 °C 1.9 °C 1021.6 hPa WNW 16.1 km/h 25.7 km/h 42 % 0 mm 346 W/m2
17:50 14.6 °C 1.5 °C 1021.6 hPa West 14.5 km/h 25.7 km/h 41 % 0 mm 334 W/m2
17:55 14.6 °C 1.1 °C 1021.6 hPa West 14.5 km/h 25.7 km/h 40 % 0 mm 318 W/m2
18:00 14.6 °C 1.5 °C 1021.6 hPa WNW 14.5 km/h 22.5 km/h 41 % 0 mm 306 W/m2
18:05 14.7 °C 1.6 °C 1021.2 hPa WNW 14.5 km/h 22.5 km/h 41 % 0 mm 287 W/m2
18:10 14.7 °C 1.6 °C 1021.2 hPa West 12.9 km/h 22.5 km/h 41 % 0 mm 272 W/m2
18:16 14.7 °C 2.2 °C 1021.2 hPa West 12.9 km/h 22.5 km/h 43 % 0 mm 258 W/m2
18:21 14.7 °C 2.2 °C 1021.2 hPa WNW 12.9 km/h 24.1 km/h 43 % 0 mm 243 W/m2
18:26 14.5 °C 2.4 °C 1021.2 hPa WNW 14.5 km/h 29 km/h 44 % 0 mm 229 W/m2
18:31 14.2 °C 2.1 °C 1021.2 hPa WNW 17.7 km/h 29 km/h 44 % 0 mm 218 W/m2
18:36 14.1 °C 1.4 °C 1021.2 hPa WNW 16.1 km/h 30.6 km/h 42 % 0 mm 200 W/m2
18:41 13.9 °C 1.5 °C 1021.2 hPa WNW 16.1 km/h 30.6 km/h 43 % 0 mm 190 W/m2
18:46 13.8 °C 1.7 °C 1021.2 hPa WNW 16.1 km/h 25.7 km/h 44 % 0 mm 174 W/m2
18:51 13.7 °C 1.9 °C 1021.2 hPa WNW 14.5 km/h 25.7 km/h 45 % 0 mm 165 W/m2
18:56 13.5 °C 2.1 °C 1020.9 hPa WNW 14.5 km/h 24.1 km/h 46 % 0 mm 146 W/m2
19:01 13.2 °C 1.2 °C 1020.9 hPa West 16.1 km/h 25.7 km/h 44 % 0 mm 125 W/m2
19:06 12.9 °C 1.6 °C 1020.9 hPa West 16.1 km/h 30.6 km/h 46 % 0 mm 114 W/m2
19:11 12.7 °C 1.4 °C 1020.9 hPa West 16.1 km/h 32.2 km/h 46 % 0 mm 111 W/m2
19:16 12.6 °C 1.3 °C 1020.9 hPa WNW 17.7 km/h 33.8 km/h 46 % 0 mm 86 W/m2
19:21 12.3 °C 1.3 °C 1020.9 hPa West 17.7 km/h 33.8 km/h 47 % 0 mm 83 W/m2
19:26 12 °C 1.3 °C 1020.9 hPa West 16.1 km/h 32.2 km/h 48 % 0 mm 65 W/m2
19:31 11.7 °C 1.3 °C 1020.9 hPa WNW 16.1 km/h 29 km/h 49 % 0 mm 47 W/m2
19:36 11.5 °C 1.2 °C 1020.9 hPa WNW 17.7 km/h 32.2 km/h 49 % 0 mm 46 W/m2
19:41 11.2 °C 0.9 °C 1020.9 hPa West 17.7 km/h 32.2 km/h 49 % 0 mm 25 W/m2
19:46 10.9 °C 1.2 °C 1020.9 hPa West 19.3 km/h 32.2 km/h 51 % 0 mm 21 W/m2
19:51 10.8 °C 1.6 °C 1020.9 hPa West 14.5 km/h 32.2 km/h 53 % 0 mm 21 W/m2
19:56 10.6 °C 1.7 °C 1020.9 hPa West 11.3 km/h 24.1 km/h 54 % 0 mm 18 W/m2
20:01 10.4 °C 1.5 °C 1020.9 hPa WNW 14.5 km/h 24.1 km/h 54 % 0 mm 16 W/m2
20:06 10.2 °C 1.6 °C 1020.9 hPa WNW 14.5 km/h 30.6 km/h 55 % 0 mm 12 W/m2
20:11 10.1 °C 1.9 °C 1020.9 hPa WNW 12.9 km/h 30.6 km/h 57 % 0 mm 11 W/m2
20:16 9.9 °C 1.8 °C 1020.9 hPa WNW 11.3 km/h 20.9 km/h 57 % 0 mm 7 W/m2
20:21 9.7 °C 2.1 °C 1020.9 hPa West 9.7 km/h 20.9 km/h 59 % 0 mm 5 W/m2
20:26 9.6 °C 2.2 °C 1020.9 hPa West 9.7 km/h 20.9 km/h 60 % 0 mm 0 W/m2
20:31 9.4 °C 2.3 °C 1020.5 hPa West 9.7 km/h 20.9 km/h 61 % 0 mm 0 W/m2
20:36 9.3 °C 2.4 °C 1020.9 hPa WNW 9.7 km/h 20.9 km/h 62 % 0 mm 0 W/m2
20:41 9.1 °C 2.7 °C 1020.9 hPa WNW 9.7 km/h 20.9 km/h 64 % 0 mm 0 W/m2
20:46 9 °C 2.8 °C 1020.5 hPa WNW 9.7 km/h 17.7 km/h 65 % 0 mm 0 W/m2
20:51 8.9 °C 2.9 °C 1020.9 hPa WNW 9.7 km/h 17.7 km/h 66 % 0 mm 0 W/m2
20:56 8.8 °C 2.8 °C 1020.9 hPa WNW 9.7 km/h 16.1 km/h 66 % 0 mm 0 W/m2
21:01 8.7 °C 2.9 °C 1020.9 hPa WNW 8 km/h 16.1 km/h 67 % 0 mm 0 W/m2
21:06 8.7 °C 3.1 °C 1020.9 hPa WNW 4.8 km/h 14.5 km/h 68 % 0 mm 0 W/m2
21:11 8.6 °C 3 °C 1020.9 hPa WNW 4.8 km/h 11.3 km/h 68 % 0 mm 0 W/m2
21:16 8.4 °C 2.8 °C 1020.9 hPa WNW 4.8 km/h 11.3 km/h 68 % 0 mm 0 W/m2
21:21 8.3 °C 2.9 °C 1020.5 hPa WNW 3.2 km/h 8 km/h 69 % 0 mm 0 W/m2
21:26 8.2 °C 3.1 °C 1020.5 hPa WNW 3.2 km/h 8 km/h 70 % 0 mm 0 W/m2
21:31 8.1 °C 2.9 °C 1020.5 hPa WNW 3.2 km/h 8 km/h 70 % 0 mm 0 W/m2
21:36 8 °C 3.1 °C 1020.5 hPa WNW 4.8 km/h 12.9 km/h 71 % 0 mm 0 W/m2
21:41 7.9 °C 3.2 °C 1020.5 hPa WNW 4.8 km/h 12.9 km/h 72 % 0 mm 0 W/m2
21:46 7.8 °C 3.3 °C 1020.5 hPa WNW 6.4 km/h 14.5 km/h 73 % 0 mm 0 W/m2
21:51 7.8 °C 3.3 °C 1020.5 hPa WNW 6.4 km/h 14.5 km/h 73 % 0 mm 0 W/m2
21:57 7.7 °C 3.3 °C 1020.5 hPa WNW 8 km/h 11.3 km/h 74 % 0 mm 0 W/m2
22:02 7.7 °C 3.3 °C 1020.5 hPa WNW 6.4 km/h 12.9 km/h 74 % 0 mm 0 W/m2
22:07 7.6 °C 3.4 °C 1020.5 hPa WNW 8 km/h 14.5 km/h 75 % 0 mm 0 W/m2
22:08 7.6 °C 3.4 °C 1020.2 hPa WNW 8 km/h 14.5 km/h 75 % 0 mm 0 W/m2
22:13 7.6 °C 3.6 °C 1020.2 hPa WNW 6.4 km/h 14.5 km/h 76 % 0 mm 0 W/m2
22:14 7.6 °C 3.6 °C 1020.2 hPa WNW 6.4 km/h 14.5 km/h 76 % 0 mm 0 W/m2
22:19 7.5 °C 3.6 °C 1020.2 hPa WNW 4.8 km/h 12.9 km/h 76 % 0 mm 0 W/m2
22:24 7.4 °C 3.4 °C 1020.2 hPa WNW 4.8 km/h 11.3 km/h 76 % 0 mm 0 W/m2
22:29 7.4 °C 3.6 °C 1019.9 hPa West 4.8 km/h 11.3 km/h 77 % 0 mm 0 W/m2
22:34 7.4 °C 3.6 °C 1020.2 hPa West 4.8 km/h 11.3 km/h 77 % 0 mm 0 W/m2
22:39 7.3 °C 3.7 °C 1020.2 hPa West 6.4 km/h 11.3 km/h 78 % 0 mm 0 W/m2
22:44 7.3 °C 3.9 °C 1020.2 hPa West 4.8 km/h 11.3 km/h 79 % 0 mm 0 W/m2
22:49 7.3 °C 3.9 °C 1019.9 hPa West 4.8 km/h 11.3 km/h 79 % 0 mm 0 W/m2
22:54 7.2 °C 3.8 °C 1019.9 hPa West 4.8 km/h 11.3 km/h 79 % 0 mm 0 W/m2
22:59 7.2 °C 4 °C 1019.9 hPa West 4.8 km/h 9.7 km/h 80 % 0 mm 0 W/m2
23:04 7.2 °C 4.2 °C 1019.9 hPa West 3.2 km/h 9.7 km/h 81 % 0 mm 0 W/m2
23:09 7.3 °C 4.3 °C 1019.9 hPa West 3.2 km/h 9.7 km/h 81 % 0 mm 0 W/m2
23:14 7.3 °C 4.3 °C 1019.9 hPa WSW 3.2 km/h 9.7 km/h 81 % 0 mm 0 W/m2
23:19 7.4 °C 4.3 °C 1019.9 hPa Calm   8 km/h 81 % 0 mm 0 W/m2
23:24 7.4 °C 4.5 °C 1019.5 hPa Calm     82 % 0 mm 0 W/m2
23:29 7.4 °C 4.5 °C 1019.5 hPa Calm     82 % 0 mm 0 W/m2
23:34 7.5 °C 4.8 °C 1019.5 hPa Calm     83 % 0 mm 0 W/m2
23:39 7.6 °C 4.9 °C 1019.5 hPa Calm     83 % 0 mm 0 W/m2
23:44 7.7 °C 5 °C 1019.2 hPa Calm   3.2 km/h 83 % 0 mm 0 W/m2
23:49 7.7 °C 5 °C 1019.2 hPa Calm   3.2 km/h 83 % 0 mm 0 W/m2
23:54 7.9 °C 5.4 °C 1019.2 hPa West 3.2 km/h 14.5 km/h 84 % 0 mm 0 W/m2
23:59 8.2 °C 5.7 °C 1019.2 hPa West 6.4 km/h 14.5 km/h 84 % 0 mm 0 W/m2
Delerius-Weather
Compliments of Weather Underground - 2.25 mb

Data updates at regular intervals.